Location: Voyageurs National Park
(48.5020°N, 92.9292°W)
Time: 21:17:42
(UTC-05:00)

Amateur Radio Satellites - All Passes

Search period start: 01 August 2015 20:47
Search period end: 02 August 2015 20:47
Location: Voyageurs National Park, 48.5020°N, 92.9292°W

Satellite Date Start Highest point End Downlink Frequencies (MHz)
Time Altitude Azimuth
CANX-2 01 Aug 20:48:24 20:52:41 86° 76° (ENE) 20:57:02 2200.000
PRISM 01 Aug 20:52:37 20:56:44 65° 287° (WNW) 21:00:46 437.425
HO-68 01 Aug 20:55:27 21:02:36 80° 254° (WSW) 21:09:50 435.675
CUBEBUG 2 01 Aug 20:56:01 20:59:32 27° 66° (ENE) 21:03:13 437.445
AAUSAT CUBESAT 2 01 Aug 21:01:04 21:05:12 59° 73° (ENE) 21:09:23 437.432
VERMONT LUNAR 01 Aug 21:01:13 21:03:37 19° 181° (S) 21:06:00 437.305
ISS 01 Aug 21:09:16 21:11:20 16° 138° (SE) 21:13:29 145.825
DX 1 01 Aug 21:20:07 21:21:33 12° 57° (ENE) 21:23:10 434.975-435.025
Cosmos 2491 01 Aug 21:24:25 21:28:35 14° 45° (NE) 21:33:13 435.465 / 435.565
PHONESAT 2.4 01 Aug 21:25:36 21:27:57 17° 166° (SSE) 21:30:20 2401.200-2431.200
VELOX 1 01 Aug 21:37:34 21:38:26 11° 56° (NE) 21:39:29 145.980
M-CUBED/EXP-1 PRIME 01 Aug 21:45:48 21:47:57 13° 90° (E) 21:50:18 437.505
ZACube-1 01 Aug 21:49:22 21:53:30 55° 72° (ENE) 21:57:45 437.345
ESTCUBE 1 01 Aug 21:51:36 21:52:43 11° 56° (NE) 21:54:02 437.505/2401.250
COMPASS 1 01 Aug 21:56:09 22:00:00 33° 265° (W) 22:03:51 437.405
DOVE 4 01 Aug 22:03:16 22:05:57 16° 271° (W) 22:08:32 437.250
CINEMA 3 01 Aug 22:06:14 22:09:57 31° 266° (W) 22:13:44 145.822/145.860
50 SAT 01 Aug 22:08:08 22:10:55 19° 64° (ENE) 22:13:47 437.505
RS-15 01 Aug 22:10:22 22:21:03 65° 119° (ESE) 22:32:13 29.354- 29.394
FUNcube-1 01 Aug 22:10:39 22:14:52 88° 78° (ENE) 22:19:14 145.935
SEEDS 01 Aug 22:13:18 22:16:26 19° 270° (W) 22:19:30 437.485
AUBIESAT-1 01 Aug 22:13:32 22:17:01 21° 95° (E) 22:20:34 437.475
UWE-3 01 Aug 22:14:46 22:18:57 64° 259° (W) 22:23:16 435.000/436.395/437.385
DELFI C3 01 Aug 22:17:45 22:21:48 67° 258° (WSW) 22:25:53 145.870
CUTE 1.7 + AOD 2 01 Aug 22:18:04 22:20:37 15° 273° (W) 22:23:00 437.475
Oscar 11 01 Aug 22:22:33 22:26:43 43° 262° (W) 22:30:54 145.826/435.025
UKube-1 01 Aug 22:23:58 22:27:58 39° 68° (ENE) 22:32:01 .
STRAND 1 01 Aug 22:26:43 22:29:15 14° 306° (NW) 22:31:36 437.568
CANX-2 01 Aug 22:27:58 22:29:19 11° 275° (W) 22:30:26 2200.000
HUMSAT D 01 Aug 22:30:27 22:34:34 64° 73° (ENE) 22:38:47 437.325/437.525
AISAT 01 Aug 22:31:38 22:35:31 32° 67° (ENE) 22:39:29 437.250
CUBEBUG 2 01 Aug 22:32:17 22:36:09 34° 265° (W) 22:40:05 437.445
VERMONT LUNAR 01 Aug 22:38:09 22:39:40 13° 198° (SSW) 22:41:10 437.305
AAUSAT CUBESAT 2 01 Aug 22:38:38 22:41:14 15° 272° (W) 22:43:43 437.432
CUBEBUG 1 01 Aug 22:43:58 22:47:30 25° 65° (ENE) 22:51:06 437.445
ISS 01 Aug 22:44:07 22:47:22 78° 158° (SSE) 22:50:39 145.825
HO-68 01 Aug 22:47:07 22:51:39 17° 276° (W) 22:55:49 435.675
AIST 1 01 Aug 22:47:28 22:51:10 28° 70° (ENE) 22:54:53
DX 1 01 Aug 22:52:48 22:57:09 82° 74° (ENE) 23:01:31 434.975-435.025
UNISAT 6 01 Aug 22:56:08 22:59:49 23° 91° (E) 23:03:34 437.425
PHONESAT 2.4 01 Aug 23:02:30 23:05:16 22° 183° (S) 23:08:04 2401.200-2431.200
QB50P2 01 Aug 23:09:35 23:10:57 12° 86° (E) 23:12:32 145.880/145.840
VELOX 1 01 Aug 23:09:51 23:14:15 72° 73° (ENE) 23:18:39 145.980
BEESAT 3 01 Aug 23:15:52 23:18:32 17° 114° (ESE) 23:21:20 437.485
SPROUT 01 Aug 23:17:49 23:20:42 18° 62° (ENE) 23:23:42 437.525
M-CUBED/EXP-1 PRIME 01 Aug 23:18:35 23:23:27 89° 114° (ESE) 23:28:12 437.505
Cosmos 2491 01 Aug 23:19:33 23:28:05 55° 72° (ENE) 23:36:37 435.465 / 435.565
ESTCUBE 1 01 Aug 23:24:19 23:28:50 71° 73° (ENE) 23:33:22 437.505/2401.250
TISAT 1 01 Aug 23:27:18 23:29:36 15° 60° (ENE) 23:32:03 437.305
ZACube-1 01 Aug 23:27:29 23:30:17 17° 272° (W) 23:33:00 437.345
DUCHIFAT 1 01 Aug 23:32:03 23:34:58 18° 90° (E) 23:38:00 145.980
QB50P1 01 Aug 23:35:43 23:38:54 21° 91° (E) 23:42:11 145.935-145.965
NANOSAT C BR1 01 Aug 23:36:37 23:39:49 21° 92° (E) 23:43:06 145.865
TIGRISAT 01 Aug 23:38:35 23:43:11 53° 100° (E) 23:47:48 435.000
ANTELSAT 01 Aug 23:40:42 23:45:20 58° 100° (E) 23:50:00 437.575/2403.000
50 SAT 01 Aug 23:41:28 23:45:12 44° 261° (W) 23:49:00 437.505
YUBILEINY 01 Aug 23:46:37 23:53:43 30° 82° (E) 00:01:04 435.215
AUBIESAT-1 01 Aug 23:47:23 23:52:05 59° 295° (WNW) 23:56:41 437.475
FUNcube-1 01 Aug 23:51:09 23:51:59 10° 276° (W) 23:52:35 145.935
UKube-1 02 Aug 00:00:40 00:04:14 24° 267° (W) 00:07:46 .
AISAT 02 Aug 00:08:12 00:12:07 30° 265° (W) 00:16:00 437.250
HUMSAT D 02 Aug 00:08:28 00:10:49 14° 273° (W) 00:13:01 437.325/437.525
BEESAT 2 02 Aug 00:13:24 00:17:20 47° 122° (ESE) 00:21:20 435.950
AIST 2 02 Aug 00:15:41 00:17:48 14° 112° (ESE) 00:20:06 435.215
POLYITAN 1 02 Aug 00:18:35 00:22:48 56° 100° (E) 00:27:01 437.675
CUBEBUG 1 02 Aug 00:19:36 00:23:42 39° 263° (W) 00:27:48 437.445
ISS 02 Aug 00:20:47 00:23:58 47° 355° (N) 00:27:09 145.825
RS-15 02 Aug 00:23:13 00:33:59 53° 327° (NNW) 00:45:13 29.354- 29.394
AIST 1 02 Aug 00:25:04 00:28:50 30° 269° (W) 00:32:31
BEESAT 02 Aug 00:25:25 00:27:45 14° 56° (ENE) 00:30:17 436.000
UNISAT 6 02 Aug 00:32:18 00:36:50 49° 290° (WNW) 00:41:22 437.425
DX 1 02 Aug 00:32:19 00:34:03 12° 274° (W) 00:35:35 434.975-435.025
BUGSAT 1 02 Aug 00:35:17 00:39:16 51° 100° (E) 00:43:17 437.445
POPSAT HIP 1 02 Aug 00:35:18 00:39:36 81° 105° (ESE) 00:43:52 437.405
PHONESAT 2.4 02 Aug 00:40:39 00:42:34 14° 199° (SSW) 00:44:26 2401.200-2431.200
QB50P2 02 Aug 00:43:12 00:47:29 82° 285° (WNW) 00:51:46 145.880/145.840
SWISSCUBE 02 Aug 00:44:41 00:48:12 21° 61° (ENE) 00:51:51 437.505
VELOX 1 02 Aug 00:49:00 00:51:22 14° 273° (W) 00:53:34 145.980
BEESAT 3 02 Aug 00:52:01 00:56:05 63° 312° (NW) 01:00:10 437.485
SPROUT 02 Aug 00:52:13 00:56:26 56° 260° (W) 01:00:39 437.525
M-CUBED/EXP-1 PRIME 02 Aug 00:54:29 00:57:36 17° 308° (NW) 01:00:33 437.505
TISAT 1 02 Aug 01:00:44 01:04:54 70° 258° (WSW) 01:09:05 437.305
ESTCUBE 1 02 Aug 01:03:39 01:06:16 15° 273° (W) 01:08:43 437.505/2401.250
ITUPSAT 1 02 Aug 01:05:25 01:09:29 28° 64° (ENE) 01:13:38 437.325
DUCHIFAT 1 02 Aug 01:06:58 01:11:05 50° 289° (WNW) 01:15:12 145.980
QB50P1 02 Aug 01:10:56 01:15:00 44° 290° (WNW) 01:19:03 145.935-145.965
NANOSAT C BR1 02 Aug 01:11:49 01:15:53 44° 290° (WNW) 01:19:55 145.865
TIGRISAT 02 Aug 01:15:59 01:19:37 22° 297° (WNW) 01:23:11 435.000
Cosmos 2491 02 Aug 01:16:51 01:24:45 39° 274° (W) 01:32:30 435.465 / 435.565
ANTELSAT 02 Aug 01:18:13 01:21:46 21° 298° (WNW) 01:25:12 437.575/2403.000
AUBIESAT-1 02 Aug 01:24:16 01:25:54 11° 312° (NW) 01:27:21 437.475
YUBILEINY 02 Aug 01:41:14 01:49:55 70° 284° (WNW) 01:58:43 435.215
O/OREOS (USA 219) 02 Aug 01:42:56 01:47:02 37° 108° (ESE) 01:51:14 437.305
AIST 2 02 Aug 01:51:35 01:55:51 82° 310° (NW) 02:00:09 435.215
BEESAT 2 02 Aug 01:51:59 01:55:34 28° 322° (NW) 01:59:11 435.950
POLYITAN 1 02 Aug 01:55:21 01:58:21 18° 298° (WNW) 02:01:15 437.675
ISS 02 Aug 01:57:25 02:00:41 64° 15° (NNE) 02:03:56 145.825
BEESAT 02 Aug 02:00:07 02:04:56 85° 74° (ENE) 02:09:46 436.000
Gurwin Techsat 1B 02 Aug 02:06:35 02:07:39 11° 82° (E) 02:09:04 435.225
STARS 02 Aug 02:11:11 02:13:34 15° 59° (ENE) 02:16:06 437.465
BUGSAT 1 02 Aug 02:11:35 02:14:25 18° 297° (WNW) 02:17:12 437.445
POPSAT HIP 1 02 Aug 02:12:44 02:14:56 14° 301° (WNW) 02:16:58 437.405
SWISSCUBE 02 Aug 02:20:57 02:25:42 59° 259° (W) 02:30:28 437.505
QB50P2 02 Aug 02:21:18 02:22:43 11° 303° (WNW) 02:23:58 145.880/145.840
JAS-2 02 Aug 02:22:26 02:23:44 11° 75° (ENE) 02:25:39 435.910
ITAMSAT 1 02 Aug 02:22:37 02:24:52 13° 85° (E) 02:27:22 435.822/435.867
BEESAT 3 02 Aug 02:32:19 02:34:49 15° 333° (NNW) 02:37:17 437.485
Oscar 19 02 Aug 02:36:57 02:42:04 59° 101° (E) 02:47:12 437.125/150
KKS-1 02 Aug 02:38:16 02:42:21 38° 68° (ENE) 02:46:29 437.445
RS-15 02 Aug 02:39:27 02:49:34 35° 359° (N) 03:00:07 29.354- 29.394
ITUPSAT 1 02 Aug 02:42:40 02:47:14 41° 262° (W) 02:51:49 437.325
Cosmos 2504 02 Aug 02:46:55 02:53:41 47° 89° (E) 03:01:01 435.465 / 435.565
O/OREOS (USA 219) 02 Aug 03:22:33 03:26:33 30° 308° (NW) 03:30:33 437.305
AIST 2 02 Aug 03:32:00 03:35:05 19° 330° (NNW) 03:38:06 435.215
ISS 02 Aug 03:34:00 03:37:00 33° 214° (SW) 03:39:59 145.825
BEESAT 2 02 Aug 03:34:28 03:34:58 10° 345° (NNW) 03:35:23 435.950
MOZHAYETS 4 02 Aug 03:36:13 03:39:45 22° 63° (ENE) 03:43:24
BEESAT 02 Aug 03:41:05 03:43:30 13° 274° (W) 03:45:42 436.000
YUBILEINY 02 Aug 03:42:55 03:48:50 19° 310° (NW) 03:54:26 435.215
Gurwin Techsat 1B 02 Aug 03:43:24 03:48:44 72° 102° (ESE) 03:54:03 435.225
STARS 02 Aug 03:45:07 03:49:30 77° 258° (WSW) 03:53:54 437.465
ITAMSAT 1 02 Aug 04:00:02 04:05:16 87° 105° (ESE) 04:10:28 435.822/435.867
CUSAT 1 02 Aug 04:01:32 04:02:44 12° 93° (E) 04:04:00 437.405
JAS-2 02 Aug 04:03:12 04:10:47 52° 97° (E) 04:18:22 435.910
AO-7 02 Aug 04:03:12 04:09:38 25° 89° (E) 04:16:17 29.400- 29.500
KKS-1 02 Aug 04:15:23 04:19:07 26° 267° (W) 04:22:48 437.445
Oscar 19 02 Aug 04:16:59 04:21:05 24° 299° (WNW) 04:25:05 437.125/150
GONETS M04 02 Aug 04:33:01 04:36:10 13° 71° (ENE) 04:39:55
Cosmos 2504 02 Aug 04:39:16 04:46:04 41° 292° (WNW) 04:53:19 435.465 / 435.565
RS-15 02 Aug 04:54:11 05:05:19 50° 31° (NNE) 05:16:59 29.354- 29.394
HORYU 2 02 Aug 05:08:06 05:12:36 63° 102° (ESE) 05:17:05 437.375
MOZHAYETS 4 02 Aug 05:12:08 05:16:41 52° 261° (W) 05:21:15
Gurwin Techsat 1B 02 Aug 05:24:20 05:28:14 21° 301° (WNW) 05:32:00 435.225
DANDE 02 Aug 05:29:29 05:32:26 53° 284° (WNW) 05:35:02 436.750
CUBESAT XI-V 02 Aug 05:32:31 05:36:31 29° 66° (ENE) 05:40:34 437.345
ITAMSAT 1 02 Aug 05:40:50 05:44:10 17° 304° (WNW) 05:47:19 435.822/435.867
CUSAT 1 02 Aug 05:43:07 05:45:08 19° 290° (WNW) 05:47:04 437.405
JAS-2 02 Aug 05:48:26 05:55:43 44° 296° (WNW) 06:02:57 435.910
BEESAT 3 02 Aug 05:52:41 05:54:13 12° 20° (NNE) 05:55:50 437.485
AO-7 02 Aug 05:55:07 06:03:32 84° 291° (WNW) 06:11:50 29.400- 29.500
PRISM 02 Aug 06:12:07 06:14:59 19° 62° (ENE) 06:17:57 437.425
Cubesat XI-IV 02 Aug 06:20:10 06:23:20 16° 87° (E) 06:26:42 437.490
GONETS M04 02 Aug 06:22:51 06:31:18 61° 92° (E) 06:39:50
STRAND 1 02 Aug 06:26:52 06:31:29 36° 65° (ENE) 06:36:10 437.568
HORYU 2 02 Aug 06:45:42 06:48:49 18° 300° (WNW) 06:51:50 437.375
BEESAT 2 02 Aug 06:51:28 06:54:31 20° 32° (NNE) 06:57:34 435.950
AIST 2 02 Aug 06:54:18 06:55:45 12° 18° (NNE) 06:57:16 435.215
RS-15 02 Aug 07:07:01 07:18:41 73° 238° (WSW) 07:30:45 29.354- 29.394
CUBESAT XI-V 02 Aug 07:09:30 07:13:52 38° 264° (W) 07:18:13 437.345
CUTE-I 02 Aug 07:14:31 07:19:37 45° 98° (E) 07:24:43 437.470
Cosmos 2499 02 Aug 07:20:08 07:26:36 34° 84° (E) 07:33:41 435.465 / 435.565
BEESAT 3 02 Aug 07:29:26 07:33:16 39° 43° (NE) 07:37:04 437.485
JAS-2 02 Aug 07:35:46 07:39:01 13° 317° (NW) 07:41:57 435.910
PRISM 02 Aug 07:45:59 07:50:05 53° 259° (W) 07:54:11 437.425
AO-7 02 Aug 07:48:49 07:55:20 26° 313° (NW) 08:01:39 29.400- 29.500
Cubesat XI-IV 02 Aug 07:58:50 08:04:11 81° 288° (WNW) 08:09:31 437.490
STRAND 1 02 Aug 08:05:57 08:10:42 36° 264° (W) 08:15:25 437.568
DOVE 4 02 Aug 08:20:02 08:21:37 12° 86° (E) 08:23:29 437.250
HO-68 02 Aug 08:20:35 08:24:39 16° 84° (E) 08:29:04 435.675
GONETS M04 02 Aug 08:20:48 08:28:44 37° 296° (WNW) 08:36:34
BEESAT 2 02 Aug 08:28:58 08:33:05 83° 234° (SW) 08:37:07 435.950
SO-50 02 Aug 08:30:15 08:31:34 11° 108° (ESE) 08:33:09 436.795
BRITE-PL 02 Aug 08:30:22 08:34:22 34° 96° (E) 08:38:38 437.365/2234.400
AIST 2 02 Aug 08:31:42 08:35:34 34° 40° (NE) 08:39:24 435.215
CANX-2 02 Aug 08:31:54 08:33:28 12° 85° (E) 08:35:14 2200.000
GOMX 1 02 Aug 08:35:29 08:39:12 25° 93° (E) 08:43:11 467.674
M-CUBED/EXP-1 PRIME 02 Aug 08:36:06 08:39:40 28° 58° (ENE) 08:43:32 437.505
CUTE-I 02 Aug 08:54:55 08:59:34 31° 297° (WNW) 09:04:08 437.470
AUBIESAT-1 02 Aug 09:03:48 09:07:47 42° 62° (ENE) 09:12:04 437.475
PCSat 02 Aug 09:06:31 09:11:18 34° 113° (ESE) 09:16:11 145.827
BEESAT 3 02 Aug 09:07:34 09:11:06 29° 242° (WSW) 09:14:33 437.485
TIGRISAT 02 Aug 09:08:28 09:09:20 11° 55° (NE) 09:10:24 435.000
ANTELSAT 02 Aug 09:10:12 09:11:37 12° 56° (NE) 09:13:14 437.575/2403.000
Cosmos 2499 02 Aug 09:11:57 09:19:23 58° 287° (WNW) 09:27:26 435.465 / 435.565
RS-15 02 Aug 09:21:09 09:29:25 21° 260° (W) 09:37:12 29.354- 29.394
COMPASS 1 02 Aug 09:35:28 09:39:13 30° 94° (E) 09:42:58 437.405
Cubesat XI-IV 02 Aug 09:40:29 09:43:33 15° 305° (NW) 09:46:26 437.490
YUBILEINY 02 Aug 09:50:43 09:56:38 20° 52° (NE) 10:02:53 435.215
SEEDS 02 Aug 09:52:16 09:56:29 56° 100° (E) 10:00:40 437.485
DELFI C3 02 Aug 09:54:33 09:56:23 13° 87° (E) 09:58:23 145.870
DOVE 4 02 Aug 09:55:28 10:00:03 89° 104° (ESE) 10:04:56 437.250
CINEMA 3 02 Aug 09:55:56 10:00:25 45° 98° (E) 10:05:06 145.822/145.860
FUNcube-1 02 Aug 09:56:22 09:58:45 14° 87° (E) 10:01:21 145.935
CUTE 1.7 + AOD 2 02 Aug 09:57:06 10:01:26 77° 102° (ESE) 10:05:43 437.475
POPSAT HIP 1 02 Aug 09:58:34 10:00:25 13° 59° (ENE) 10:02:26 437.405
UNISAT 6 02 Aug 09:58:48 10:02:36 30° 66° (ENE) 10:06:34 437.425
UWE-3 02 Aug 10:01:06 10:04:33 21° 90° (E) 10:08:08 435.000/436.395/437.385
CANX-2 02 Aug 10:05:41 10:10:02 80° 285° (WNW) 10:14:20 2200.000
QB50P2 02 Aug 10:05:52 10:08:18 16° 61° (ENE) 10:10:55 145.880/145.840
Oscar 11 02 Aug 10:06:13 10:09:52 26° 93° (E) 10:13:33 145.826/435.025
HO-68 02 Aug 10:06:29 10:13:43 78° 105° (ESE) 10:20:55 435.675
SO-50 02 Aug 10:06:32 10:11:19 72° 125° (SE) 10:16:14 436.795
BRITE-PL 02 Aug 10:09:07 10:12:53 29° 292° (WNW) 10:16:47 437.365/2234.400
BEESAT 2 02 Aug 10:09:42 10:10:29 10° 250° (WSW) 10:11:03 435.950
O/OREOS (USA 219) 02 Aug 10:09:57 10:13:31 22° 48° (NE) 10:17:08 437.305
AIST 2 02 Aug 10:10:17 10:14:10 37° 241° (WSW) 10:17:59 435.215
M-CUBED/EXP-1 PRIME 02 Aug 10:10:23 10:14:17 39° 258° (WSW) 10:18:31 437.505
GOMX 1 02 Aug 10:13:17 10:17:30 41° 290° (WNW) 10:21:57 467.674
AAUSAT CUBESAT 2 02 Aug 10:15:33 10:19:46 67° 101° (E) 10:23:56 437.432
CUBEBUG 2 02 Aug 10:18:42 10:23:01 37° 96° (E) 10:27:25 437.445
DUCHIFAT 1 02 Aug 10:28:01 10:31:16 23° 64° (ENE) 10:34:36 145.980
QB50P1 02 Aug 10:32:02 10:35:30 26° 65° (ENE) 10:39:01 145.935-145.965
NANOSAT C BR1 02 Aug 10:32:44 10:36:12 26° 65° (ENE) 10:39:42 145.865
Cosmos 2491 02 Aug 10:36:33 10:38:38 11° 70° (ENE) 10:41:21 435.465 / 435.565
AUBIESAT-1 02 Aug 10:39:12 10:42:41 24° 263° (W) 10:46:18 437.475
DX 1 02 Aug 10:40:02 10:40:47 10° 85° (E) 10:41:46 434.975-435.025
TIGRISAT 02 Aug 10:40:57 10:45:17 71° 74° (ENE) 10:49:47 435.000
ANTELSAT 02 Aug 10:43:16 10:47:39 78° 74° (ENE) 10:52:11 437.575/2403.000
PCSat 02 Aug 10:49:22 10:54:36 48° 313° (NW) 10:59:53 145.827
VELOX 1 02 Aug 10:59:30 10:59:56 10° 85° (E) 11:00:38 145.980
ZACube-1 02 Aug 11:09:57 11:14:31 73° 101° (E) 11:19:07 437.345
Cosmos 2499 02 Aug 11:10:45 11:14:57 14° 314° (NW) 11:18:54 435.465 / 435.565
COMPASS 1 02 Aug 11:11:07 11:14:52 30° 293° (WNW) 11:18:32 437.405
50 SAT 02 Aug 11:13:48 11:16:18 16° 90° (E) 11:18:55 437.505
POLYITAN 1 02 Aug 11:15:00 11:19:10 69° 74° (ENE) 11:23:24 437.675
ESTCUBE 1 02 Aug 11:15:28 11:16:49 11° 85° (E) 11:18:23 437.505/2401.250
AIST 1 02 Aug 11:22:31 11:24:45 14° 85° (E) 11:27:07
DELFI C3 02 Aug 11:27:54 11:31:58 67° 286° (WNW) 11:35:58 145.870
BUGSAT 1 02 Aug 11:28:48 11:32:46 59° 73° (ENE) 11:36:45 437.445
SEEDS 02 Aug 11:28:55 11:31:55 18° 298° (WNW) 11:34:47 437.485
FUNcube-1 02 Aug 11:31:06 11:35:38 74° 286° (WNW) 11:40:12 145.935
POPSAT HIP 1 02 Aug 11:31:31 11:35:43 83° 259° (W) 11:39:58 437.405
CINEMA 3 02 Aug 11:33:35 11:37:26 26° 295° (WNW) 11:41:21 145.822/145.860
CUTE 1.7 + AOD 2 02 Aug 11:34:25 11:36:48 14° 300° (WNW) 11:39:03 437.475
DOVE 4 02 Aug 11:34:53 11:37:19 14° 300° (WNW) 11:39:37 437.250
UNISAT 6 02 Aug 11:35:21 11:39:20 33° 265° (W) 11:43:25 437.425
UWE-3 02 Aug 11:36:54 11:41:22 51° 289° (WNW) 11:45:53 435.000/436.395/437.385
QB50P2 02 Aug 11:39:34 11:43:45 67° 258° (WSW) 11:47:58 145.880/145.840
Oscar 11 02 Aug 11:42:06 11:46:10 37° 291° (WNW) 11:50:09 145.826/435.025
UKube-1 02 Aug 11:43:20 11:47:26 41° 98° (E) 11:51:32 .
CANX-2 02 Aug 11:43:54 11:45:16 11° 303° (WNW) 11:46:28 2200.000
HUMSAT D 02 Aug 11:46:03 11:50:23 74° 102° (ESE) 11:54:43 437.325/437.525
YUBILEINY 02 Aug 11:46:34 11:55:25 74° 77° (ENE) 12:04:16 435.215
SO-50 02 Aug 11:48:10 11:52:20 27° 327° (NNW) 11:56:33 436.795
O/OREOS (USA 219) 02 Aug 11:48:49 11:53:20 59° 248° (WSW) 11:57:51 437.305
AAUSAT CUBESAT 2 02 Aug 11:52:20 11:54:54 16° 299° (WNW) 11:57:20 437.432
AISAT 02 Aug 11:54:23 11:58:29 37° 97° (E) 12:02:37 437.250
HO-68 02 Aug 11:54:59 12:00:52 28° 306° (NW) 12:06:36 435.675
CUBEBUG 2 02 Aug 11:55:34 11:59:36 30° 294° (WNW) 12:03:38 437.445
DUCHIFAT 1 02 Aug 12:02:54 12:06:52 41° 262° (W) 12:10:51 145.980
CUBEBUG 1 02 Aug 12:04:32 12:08:16 28° 94° (E) 12:12:03 437.445
QB50P1 02 Aug 12:07:21 12:11:15 35° 263° (W) 12:15:08 145.935-145.965
NANOSAT C BR1 02 Aug 12:08:01 12:11:54 35° 263° (W) 12:15:47 145.865
DX 1 02 Aug 12:13:24 12:17:46 90° 104° (ESE) 12:22:07 434.975-435.025
Oscar 19 02 Aug 12:20:14 12:23:53 21° 59° (ENE) 12:27:40 437.125/150
TIGRISAT 02 Aug 12:20:16 12:22:40 14° 274° (W) 12:24:54 435.000
ANTELSAT 02 Aug 12:23:01 12:25:08 13° 275° (W) 12:27:03 437.575/2403.000
Cosmos 2491 02 Aug 12:25:14 12:33:39 55° 91° (E) 12:42:06 435.465 / 435.565
Cosmos 2504 02 Aug 12:27:49 12:34:00 23° 57° (ENE) 12:40:36 435.465 / 435.565
VELOX 1 02 Aug 12:32:50 12:37:16 86° 104° (ESE) 12:41:41 145.980
SPROUT 02 Aug 12:35:39 12:38:45 20° 91° (E) 12:41:57 437.525
PCSat 02 Aug 12:36:06 12:39:25 16° 337° (NNW) 12:42:40 145.827
TISAT 1 02 Aug 12:42:39 12:44:52 14° 88° (E) 12:47:14 437.305
50 SAT 02 Aug 12:47:18 12:51:12 50° 288° (WNW) 12:55:02 437.505
ZACube-1 02 Aug 12:47:29 12:50:24 17° 299° (WNW) 12:53:10 437.345
ESTCUBE 1 02 Aug 12:49:54 12:54:26 88° 285° (WNW) 12:58:55 437.505/2401.250
POLYITAN 1 02 Aug 12:53:26 12:55:37 13° 273° (W) 12:57:38 437.675
AIST 1 02 Aug 12:57:36 13:01:55 64° 282° (WNW) 13:06:14
BUGSAT 1 02 Aug 13:06:22 13:08:40 14° 271° (W) 13:10:50 437.445
FUNcube-1 02 Aug 13:09:44 13:11:15 11° 303° (WNW) 13:12:33 145.935
AO-7 02 Aug 13:18:25 13:22:49 16° 37° (NE) 13:27:29 29.400- 29.500
UKube-1 02 Aug 13:19:52 13:23:23 24° 296° (WNW) 13:26:49 .
HUMSAT D 02 Aug 13:23:05 13:25:37 15° 300° (WNW) 13:28:02 437.325/437.525
Gurwin Techsat 1B 02 Aug 13:29:44 13:34:04 27° 62° (ENE) 13:38:31 435.225
AISAT 02 Aug 13:31:12 13:34:57 27° 295° (WNW) 13:38:38 437.250
SO-50 02 Aug 13:32:08 13:34:31 13° 351° (N) 13:36:53 436.795
CUBEBUG 1 02 Aug 13:40:45 13:44:41 34° 292° (WNW) 13:48:34 437.445
ITAMSAT 1 02 Aug 13:43:21 13:47:50 31° 64° (ENE) 13:52:25 435.822/435.867
YUBILEINY 02 Aug 13:44:16 13:51:33 29° 279° (W) 13:58:35 435.215
DX 1 02 Aug 13:51:24 13:53:25 13° 302° (WNW) 13:55:17 434.975-435.025
Oscar 19 02 Aug 13:57:41 14:02:47 68° 257° (WSW) 14:07:57 437.125/150
BEESAT 02 Aug 13:57:42 14:00:40 17° 88° (E) 14:03:47 436.000
SPROUT 02 Aug 14:10:57 14:15:07 48° 289° (WNW) 14:19:15 437.525
VELOX 1 02 Aug 14:10:59 14:13:14 14° 302° (WNW) 14:15:20 145.980
TISAT 1 02 Aug 14:16:55 14:21:07 65° 287° (WNW) 14:25:17 437.305
SWISSCUBE 02 Aug 14:17:46 14:21:47 27° 93° (E) 14:25:51 437.505
Cosmos 2504 02 Aug 14:19:11 14:27:37 84° 80° (E) 14:36:17 435.465 / 435.565
JAS-2 02 Aug 14:19:44 14:25:21 34° 59° (ENE) 14:31:40 435.910
DANDE 02 Aug 14:21:00 14:22:19 12° 67° (ENE) 14:23:54 436.750
Cosmos 2491 02 Aug 14:22:44 14:30:54 40° 294° (WNW) 14:38:59 435.465 / 435.565
PCSat 02 Aug 14:24:05 14:25:14 11° 2° (N) 14:26:25 145.827
ESTCUBE 1 02 Aug 14:28:30 14:30:40 13° 303° (WNW) 14:32:39 437.505/2401.250
CUSAT 1 02 Aug 14:29:04 14:32:24 25° 71° (ENE) 14:36:38 437.405
HORYU 2 02 Aug 14:36:06 14:38:13 14° 58° (ENE) 14:40:32 437.375
ITUPSAT 1 02 Aug 14:39:13 14:43:41 38° 97° (E) 14:48:08 437.325
AO-7 02 Aug 15:05:54 15:13:47 49° 60° (ENE) 15:21:46 29.400- 29.500
Gurwin Techsat 1B 02 Aug 15:08:37 15:13:48 52° 260° (W) 15:19:01 435.225
SO-50 02 Aug 15:14:16 15:17:04 15° 15° (NNE) 15:19:55 436.795
ITAMSAT 1 02 Aug 15:22:15 15:27:14 43° 262° (W) 15:32:12 435.822/435.867
STARS 02 Aug 15:32:11 15:34:42 15° 88° (E) 15:37:25 437.465
BEESAT 02 Aug 15:34:16 15:39:04 68° 288° (WNW) 15:43:48 436.000
SWISSCUBE 02 Aug 15:55:18 15:59:49 41° 292° (WNW) 16:04:16 437.505
KKS-1 02 Aug 16:01:39 16:05:57 46° 99° (E) 16:10:16 437.445
DANDE 02 Aug 16:01:56 16:05:33 67° 260° (W) 16:10:23 436.750
JAS-2 02 Aug 16:03:54 16:10:04 57° 262° (W) 16:17:05 435.910
PCSat 02 Aug 16:07:10 16:10:56 19° 28° (NNE) 16:14:46 145.827
HORYU 2 02 Aug 16:09:47 16:14:15 89° 255° (WSW) 16:18:46 437.375
CUSAT 1 02 Aug 16:11:07 16:14:57 38° 262° (W) 16:19:53 437.405
Cosmos 2504 02 Aug 16:12:31 16:19:01 25° 280° (W) 16:25:23 435.465 / 435.565
ITUPSAT 1 02 Aug 16:17:17 16:21:29 30° 295° (WNW) 16:25:37 437.325
GONETS M04 02 Aug 16:28:13 16:36:07 37° 65° (ENE) 16:44:08
Cosmos 2491 02 Aug 16:30:18 16:31:10 10° 322° (NW) 16:31:30 435.465 / 435.565
SO-50 02 Aug 16:54:25 16:59:01 36° 39° (NE) 17:03:35 436.795
AO-7 02 Aug 16:58:39 17:06:41 48° 261° (W) 17:14:42 29.400- 29.500
CUTE-I 02 Aug 17:02:26 17:06:02 19° 57° (ENE) 17:09:46 437.470
MOZHAYETS 4 02 Aug 17:03:38 17:07:39 29° 93° (E) 17:11:41
Cosmos 2499 02 Aug 17:05:18 17:11:00 19° 52° (NE) 17:17:09 435.465 / 435.565
STARS 02 Aug 17:07:15 17:11:39 66° 287° (WNW) 17:16:02 437.465
BEESAT 02 Aug 17:14:29 17:16:06 11° 306° (NW) 17:17:29 436.000
KKS-1 02 Aug 17:38:48 17:42:21 23° 297° (WNW) 17:45:51 437.445
Cubesat XI-IV 02 Aug 17:45:17 17:50:13 39° 66° (ENE) 17:55:11 437.490
PCSat 02 Aug 17:50:02 17:55:27 64° 51° (NE) 18:00:51 145.827
HORYU 2 02 Aug 17:50:23 17:51:40 11° 275° (W) 17:52:43 437.375
VERMONT LUNAR 02 Aug 18:24:28 18:25:09 11° 159° (SSE) 18:25:53 437.305
GONETS M04 02 Aug 18:24:59 18:33:30 59° 268° (W) 18:41:59
SO-50 02 Aug 18:34:57 18:39:43 47° 239° (WSW) 18:44:22 436.795
CUTE-I 02 Aug 18:40:10 18:45:33 80° 256° (WSW) 18:50:57 437.470
MOZHAYETS 4 02 Aug 18:40:40 18:44:58 37° 292° (WNW) 18:49:10
HO-68 02 Aug 18:53:47 18:58:50 22° 51° (NE) 19:04:05 435.675
Cosmos 2499 02 Aug 18:57:22 19:06:06 70° 77° (ENE) 19:14:58 435.465 / 435.565
CUBESAT XI-V 02 Aug 19:02:00 19:06:22 40° 97° (E) 19:10:42 437.345
CUTE 1.7 + AOD 2 02 Aug 19:20:42 19:22:16 12° 58° (ENE) 19:24:01 437.475
PRISM 02 Aug 19:25:26 19:27:57 16° 90° (E) 19:30:34 437.425
Cubesat XI-IV 02 Aug 19:25:27 19:30:23 35° 265° (W) 19:35:16 437.490
CANX-2 02 Aug 19:28:21 19:30:48 15° 61° (ENE) 19:33:25 2200.000
DOVE 4 02 Aug 19:29:32 19:32:06 17° 62° (ENE) 19:34:49 437.250
PCSat 02 Aug 19:34:10 19:38:29 24° 250° (WSW) 19:42:42 145.827
RS-15 02 Aug 19:34:23 19:35:31 10° 93° (E) 19:37:45 29.354- 29.394
BRITE-PL 02 Aug 19:45:22 19:49:35 58° 73° (ENE) 19:53:42 437.365/2234.400
GOMX 1 02 Aug 19:47:52 19:51:42 37° 69° (ENE) 19:55:34 467.674
VERMONT LUNAR 02 Aug 19:58:50 20:01:10 19° 175° (S) 20:03:31 437.305
STRAND 1 02 Aug 20:12:01 20:17:04 58° 101° (E) 20:22:05 437.568
CUTE-I 02 Aug 20:24:17 20:26:37 12° 276° (W) 20:28:40 437.470
GONETS M04 02 Aug 20:25:02 20:28:36 13° 289° (WNW) 20:31:36
COMPASS 1 02 Aug 20:30:07 20:33:55 34° 68° (ENE) 20:37:47 437.405
ZACube-1 02 Aug 20:36:26 20:38:04 12° 58° (ENE) 20:39:53 437.345
CUBESAT XI-V 02 Aug 20:39:46 20:43:39 27° 295° (WNW) 20:47:27 437.345
PHONESAT 2.4 02 Aug 20:41:13 20:43:19 15° 163° (SSE) 20:45:27 2401.200-2431.200
